Flag for Germany Weather past 2 weeks in Bretten, Baden-Württemberg, Germany

Now
77 °F

Passing clouds.


Feels Like: 79 °F
Forecast: 60 / 85 °F
Wind: 7 mph from South

Location: Baden Wurttemberg - Neuostheim

Current Time: Aug 1, 2014 at 11:49:18 AM

Latest Report: Aug 1, 2014 at 11:20 AM


Visibility: N/A

Pressure: 29.89 "Hg

Humidity: 54%

Dew point: 59 °F

Location of BrettenLocation

Historic Weather in Bretten — Graph

°F

Bretten temperature yesterday

Maximum temperature yesterday: 79 °F (at 5:20 PM)
Minimum temperature yesterday: 63 °F (at 6:20 AM)
Average temperature yesterday: 72 °F

Past Weeks' High & Low Weather Summary

 TemperatureHumidityPressure
High93 °F (Jul 18, 4:50 PM)100% (Jul 21, 5:50 AM)30.18 "Hg (Jul 21, 5:50 AM)
Low61 °F (Jul 25, 5:50 AM)20% (Jul 18, 5:50 PM)29.74 "Hg (Jul 29, 4:20 PM)
Average75 °F62%29.92 "Hg
* Reported Jul 17 10:20 AM — Aug 1 10:50 AM, Bretten, Weather by CustomWeather, © 2014

Note: Actual official high and low records may vary slightly from our data, if they occured in-between our weather recording intervals... More about our weather records

Advertising

Bretten weather history for previous 24 hours

 ConditionsComfort  
Time TempWeatherWind HumidityBarometerVisibility
10:50 AM
Aug 1
75 °FPassing clouds.5 mph57%29.89 "HgN/A
10:20 AM73 °FSunny.2 mph61%29.89 "Hg10 mi
9:50 AM73 °FSunny.1 mph61%29.89 "Hg10 mi
9:20 AM72 °FSunny.2 mph65%29.89 "Hg10 mi
8:50 AM70 °FSunny.2 mph64%29.89 "Hg10 mi
8:20 AM68 °FSunny.1 mph73%29.89 "Hg10 mi
7:50 AM64 °FSunny.2 mph83%29.89 "Hg10 mi
7:20 AM63 °FSunny.2 mph88%29.89 "Hg10 mi
6:50 AM63 °FClear.2 mph88%29.89 "Hg10 mi
6:20 AM61 °FClear.1 mph88%29.89 "Hg10 mi
5:50 AM61 °FClear.2 mph88%29.92 "Hg10 mi
5:20 AM61 °FClear.1 mph88%29.92 "Hg10 mi
8:50 PM
Jul 31
75 °FSunny.5 mph50%29.92 "Hg10 mi
8:20 PM77 °FSunny.3 mph44%29.92 "Hg10 mi
7:50 PM77 °FSunny.5 mph44%29.92 "Hg10 mi
7:20 PM79 °FSunny.3 mph42%29.92 "Hg10 mi
6:50 PM79 °FSunny.2 mph42%29.92 "Hg10 mi
6:20 PM79 °FSunny.1 mph39%29.95 "Hg10 mi
5:50 PM79 °FSunny.2 mph39%29.95 "Hg10 mi
5:20 PM79 °FSunny.2 mph37%29.95 "Hg10 mi
4:50 PM77 °FSunny.2 mph42%29.95 "Hg10 mi
4:20 PM77 °FSunny.3 mph44%29.95 "Hg10 mi
3:50 PM77 °FPassing clouds.3 mph42%29.98 "HgN/A
3:20 PM77 °FScattered clouds.2 mph44%29.98 "HgN/A
2:50 PM75 °FPartly sunny.2 mph47%29.98 "HgN/A
2:20 PM75 °FScattered clouds.6 mph47%29.98 "HgN/A
1:50 PM75 °FScattered clouds.5 mph50%29.98 "HgN/A
1:20 PM75 °FSunny.2 mph50%30.01 "Hg10 mi
12:50 PM73 °FScattered clouds.5 mph50%30.01 "HgN/A
12:20 PM73 °FSunny.3 mph53%30.01 "Hg10 mi
11:50 AM73 °FSunny.2 mph53%30.01 "Hg10 mi
11:20 AM73 °FSunny.3 mph57%30.01 "Hg10 mi
Weather by CustomWeather, © 2014

See weather overviewHow to use our weather pages